CZ-6A DEB

Satellite information

Favourite Embed

Satellite Type and Status

DEBRISIN ORBIT

Key statistics

Satellite CZ-6A DEB at a glance.

Uptime

1079

Days in orbit

Revolutions

≈ 14.6

Per day

Orbit

SSO

Sun Synchronous Orbit

Inclination

99.1

Latest

Satellite identification and parameters

Extended collection of information and parameters for CZ-6A DEB.

Object identification

Identified? True

Debris? True

Object name: CZ-6A DEB

International designator: 2022-151RZ

Object number (NORAD): 54936

Object ID (CCSDS): 54936

Country: PEOPLES REPUBLIC OF CHINA (PRC)

Current information (Y/N): Y

RCS size: SMALL

Orbital parameters

Period: 98.649 minutes

Inclination: 99.1047 deg

SMA: 7072.21 km

Apoapsis: 765.215 km

Periapsis: 622.935 km

RAAN: 40.4527 deg

Eccentricy: 0.0100591

Argument of periapsis: 2.0309 deg

Mean anomaly: 358.1276 deg

Mean motion: 14.5972152 rev/day

Mean motion (dot): 0.00013208 rev/day2

B* drag term: 0.0025872 1/REarth

Two-line elements (TLE)

Creation date: Oct. 24, 2025, 9:26 p.m.

Reference frame: TEME

Reference center: EARTH

Epoch: Oct. 24, 2025, 5:25 a.m. UTC

TLE line 0: 0 CZ-6A DEB

TLE line 1: 1 54936U 22151RZ 25297.22578534 .00013208 00000-0 25872-2 0 9999

TLE line 2: 2 54936 99.1047 40.4527 0100591 2.0309 358.1276 14.59721520155011

Live tracking on map

Real-time ground track for satellite CZ-6A DEB.

In-orbit conjunctions

There are no conjunctions computed for CZ-6A DEB, at the moment. Check back to stay up to date, as we update our databases every day.

Go to all conjunctions

Associated space launch

Chinese satellite reported for atmospheric/ocean/environmental/spatial parameter research purposes, details TBD.

CZ-6A DEB was lifted into orbit during the mission ‘Long March 6A | Yunhai 3’, on board a Long March 6A space rocket.

The launch took place on Nov. 11, 2022, 10:52 p.m. from Launch Complex 9A.

For more information about the launch, click the button.

Launch to space Long March 6A | Yunhai 3
Long March 6A | Yunhai 3

Agency: N/A

Status: Launch Successful

Launch date: Nov. 11, 2022, 10:52 p.m. UTC

Rocket: Long March 6A

Launch pad: Launch Complex 9A

Location: Taiyuan Satellite Launch Center, People's Republic of China

...

Latest news about this satellite

There are no fresh news available about this satellite. Check back as we update our databases every day.


Newsletter sign-up

Weekly statistics, charts and insights to help you stay on top of the space industry.